User: anonymous   Login
Location: Unspecified
(0.0000°N, 0.0000°E)
Time: 12:37:21
(UTC+00:00)
Language:

CSTB 1 - Orbit

View from above orbital plane
View from above orbital plane
View from above satellite
View from above satellite

Ground track
Ground track

The orbit data is extracted from the following two-line orbital elements,

1 31122U 07012F   18171.82024269 +.00000194 +00000-0 +47747-4 0  9997
2 31122 098.0713 125.4783 0079792 053.4115 307.4393 14.60729940594540
Epoch (UTC): 20 June 2018 19:41:08
Eccentricity: 0.0079792
inclination: 98.0713°
perigee height: 634 km
apogee height: 747 km
right ascension of ascending node: 125.4783°
argument of perigee: 53.4115°
revolutions per day: 14.60729940
mean anomaly at epoch: 307.4393°
orbit number at epoch: 59454

The dashed part of the orbit path shows where the satellite is in the earth's shadow,  

DLR